Hourly Data Report for March 17, 2004

TORONTO CITY
ONTARIO

43°40'00.000" N
79°24'00.000" W
112.50 m
6158355
71508
XTO

Download Data

Hourly Data (March 2004)
Hourly Data Report for March 17, 2004
TIME
LST
Temp Definition
°C
Dew Point Definition
°C
Rel Hum Definition
%
Precip. Amount Definition
mm

Wind Dir Definition
10's deg

Wind Spd Definition
km/h
Visibility Definition
km
Stn Press Definition
kPa
Hmdx Definition


Wind Chill Definition


Weather Definition


00:00 -6.0 -7.6 88   LegendMM LegendMM LegendMM 100.39     LegendNANA
01:00 -6.3 -8.3 86   LegendMM LegendMM LegendMM 100.37     LegendNANA
02:00 -6.0 -8.8 81   LegendMM LegendMM LegendMM 100.38     LegendNANA
03:00 -6.4 -8.6 84   LegendMM LegendMM LegendMM 100.30     LegendNANA
04:00 -6.6 -8.8 84   LegendMM LegendMM LegendMM 100.24     LegendNANA
05:00 -6.4 -8.6 84   LegendMM LegendMM LegendMM 100.28     LegendNANA
06:00 -6.5 -9.0 82   LegendMM LegendMM LegendMM 100.33     LegendNANA
07:00 -6.3 -9.0 81   LegendMM LegendMM LegendMM 100.37     LegendNANA
08:00 -5.6 -8.9 78   LegendMM LegendMM LegendMM 100.40     LegendNANA
09:00 -4.9 -12.0 57   LegendMM LegendMM LegendMM 100.38     LegendNANA
10:00 -3.2 -10.8 56   LegendMM LegendMM LegendMM 100.36     LegendNANA
11:00 -2.5 -11.3 51   LegendMM LegendMM LegendMM 100.31     LegendNANA
12:00 -2.1 -10.2 54   LegendMM LegendMM LegendMM 100.29     LegendNANA
13:00 -3.0 -10.2 58   LegendMM LegendMM LegendMM 100.28     LegendNANA
14:00 -2.4 -9.0 60   LegendMM LegendMM LegendMM 100.24     LegendNANA
15:00 -2.3 -8.7 61   LegendMM LegendMM LegendMM 100.22     LegendNANA
16:00 -2.1 -8.1 63   LegendMM LegendMM LegendMM 100.21     LegendNANA
17:00 -2.5 -7.5 68   LegendMM LegendMM LegendMM 100.21     LegendNANA
18:00 -2.8 -7.8 68   LegendMM LegendMM LegendMM 100.24     LegendNANA
19:00 -2.8 -7.0 73   LegendMM LegendMM LegendMM 100.28     LegendNANA
20:00 -2.8 -6.7 74   LegendMM LegendMM LegendMM 100.30     LegendNANA
21:00 -2.7 -6.3 76   LegendMM LegendMM LegendMM 100.31     LegendNANA
22:00 -2.8 -6.5 76   LegendMM LegendMM LegendMM 100.32     LegendNANA
23:00 -2.8 -6.5 76   LegendMM LegendMM LegendMM 100.33     LegendNANA

Notes on Data Quality.

Legend

  • E = Estimated
  • M = Missing
  • NA = Not Available*
  • [empty] = Indicates an unobserved value
Date modified: